Kearney, NE

6:00 PM CST on November 18, 2017 (GMT -0600)
Kearney Municipal

Weather History for KEAR - May, 2013

Change the Weather History Date:

Friday, May 17, 2013

  Actual Average Record
Temperature  
Mean Temperature 70 °F 60 °F  
Max Temperature 86 °F 72 °F 92 °F (1996)
Min Temperature 54 °F 48 °F 30 °F (2014)
Degree Days  
Heating Degree Days 0 6  
Month to date heating degree days 148  
Cooling Degree Days 5 1  
Month to date cooling degree days 17  
Growing Degree Days 20 (Base 50)    
Moisture  
Dew Point 57 °F    
Average Humidity 67    
Maximum Humidity 93    
Minimum Humidity 40    
Precipitation  
Precipitation 0.00 in - 1.09 in (1961)
Sea Level Pressure  
Sea Level Pressure 29.85 in    
Wind  
Wind Speed 11 mph (South)    
Max Wind Speed 20 mph    
Max Gust Speed 25 mph    
Visibility 10 miles    
Events      
T = Trace of Precipitation, MM = Missing Value Source: NWS Daily Summary

Daily Weather History Graph

Daily Weather History Graph

Search for Another Location

Airport or City:

Trip Planner

Search our weather history database for the weather conditions in past years. The results will help you decide how hot, cold, wet, or windy it might be!

Date:

Astronomy

May. 17, 2013 Rise Set
Actual Time 6:16 AM CDT 8:48 PM CDT
Civil Twilight 5:45 AM CDT 9:20 PM CDT
Nautical Twilight 5:06 AM CDT 9:59 PM CDT
Astronomical Twilight 4:23 AM CDT 10:43 PM CDT
Moon 12:51 PM CDT (5/17) 1:41 AM CDT (5/17)
Length of Visible Light 15h 34m
Length of Day
14h 31m
Waxing Crescent, 45% of the Moon is Illuminated
May 17
Waxing Crescent
May 17
First Quarter
May 24
Full
May 31
Last Quarter
Jun 8
New

Hourly Weather History & Observations

Time (CDT) Temp. Heat Index Dew Point Humidity Pressure Visibility Wind Dir Wind Speed Gust Speed Precip Events Conditions
12:15 AM 62.6 °F - 57.2 °F 82% 29.84 in 10.0 mi South 8.1 mph - N/A   Clear
12:35 AM 60.8 °F - 57.2 °F 88% 29.82 in 10.0 mi South 8.1 mph - N/A   Clear
12:55 AM 60.8 °F - 57.2 °F 88% 29.82 in 10.0 mi SE 6.9 mph - N/A   Clear
1:15 AM 60.8 °F - 55.4 °F 82% 29.83 in 10.0 mi South 5.8 mph - N/A   Clear
1:35 AM 60.8 °F - 57.2 °F 88% 29.83 in 10.0 mi South 5.8 mph - N/A   Clear
1:55 AM 60.8 °F - 57.2 °F 88% 29.82 in 10.0 mi SSE 6.9 mph - N/A   Clear
2:15 AM 59.0 °F - 55.4 °F 88% 29.83 in 10.0 mi SSE 6.9 mph - N/A   Clear
2:35 AM 57.2 °F - 55.4 °F 94% 29.83 in 10.0 mi South 5.8 mph - N/A   Clear
2:55 AM 57.2 °F - 55.4 °F 94% 29.83 in 10.0 mi SSW 8.1 mph - N/A   Clear
3:15 AM 60.8 °F - 55.4 °F 82% 29.84 in 10.0 mi SW 4.6 mph - N/A   Clear
3:35 AM 57.2 °F - 53.6 °F 88% 29.84 in 10.0 mi SSW 4.6 mph - N/A   Clear
3:55 AM 55.4 °F - 53.6 °F 94% 29.85 in 10.0 mi SW 4.6 mph - N/A   Clear
4:15 AM 55.4 °F - 53.6 °F 94% 29.86 in 10.0 mi South 8.1 mph - N/A   Clear
4:35 AM 55.4 °F - 53.6 °F 94% 29.86 in 10.0 mi SW 8.1 mph - N/A   Clear
4:55 AM 57.2 °F - 53.6 °F 88% 29.86 in 10.0 mi SW 4.6 mph - N/A   Clear
5:15 AM 55.4 °F - 53.6 °F 94% 29.86 in 10.0 mi WSW 5.8 mph - N/A   Clear
5:35 AM 55.4 °F - 53.6 °F 94% 29.86 in 10.0 mi SW 6.9 mph - N/A   Clear
5:55 AM 57.2 °F - 53.6 °F 88% 29.86 in 10.0 mi SSW 6.9 mph - N/A   Clear
6:15 AM 55.4 °F - 53.6 °F 94% 29.86 in 10.0 mi South 6.9 mph - N/A   Clear
6:35 AM 53.6 °F - 51.8 °F 94% 29.86 in 10.0 mi South 6.9 mph - N/A   Clear
6:55 AM 53.6 °F - 51.8 °F 94% 29.87 in 10.0 mi SSE 4.6 mph - N/A   Clear
7:15 AM 55.4 °F - 53.6 °F 94% 29.87 in 10.0 mi SSE 4.6 mph - N/A   Clear
7:35 AM 57.2 °F - 53.6 °F 88% 29.88 in 10.0 mi SSE 3.5 mph - N/A   Clear
7:55 AM 59.0 °F - 55.4 °F 88% 29.89 in 10.0 mi SSW 3.5 mph - N/A   Clear
8:15 AM 62.6 °F - 55.4 °F 77% 29.89 in 10.0 mi Calm Calm - N/A   Clear
8:35 AM 64.4 °F - 55.4 °F 73% 29.90 in 10.0 mi WSW 3.5 mph - N/A   Clear
8:55 AM 66.2 °F - 57.2 °F 73% 29.89 in 10.0 mi South 5.8 mph - N/A   Clear
9:15 AM 68.0 °F - 60.8 °F 78% 29.89 in 10.0 mi South 10.4 mph - N/A   Clear
9:35 AM 69.8 °F - 60.8 °F 73% 29.89 in 10.0 mi South 11.5 mph - N/A   Clear
9:55 AM 71.6 °F - 60.8 °F 69% 29.89 in 10.0 mi South 10.4 mph - N/A   Clear
10:15 AM 73.4 °F - 62.6 °F 69% 29.89 in 10.0 mi South 12.7 mph - N/A   Clear
10:35 AM 73.4 °F - 60.8 °F 65% 29.90 in 10.0 mi South 11.5 mph 16.1 mph N/A   Clear
10:55 AM 75.2 °F - 60.8 °F 61% 29.90 in 10.0 mi South 13.8 mph 17.3 mph N/A   Clear
11:15 AM 75.2 °F - 60.8 °F 61% 29.89 in 10.0 mi South 8.1 mph - N/A   Clear
11:35 AM 78.8 °F - 60.8 °F 54% 29.89 in 10.0 mi SW 9.2 mph - N/A   Clear
11:55 AM 78.8 °F - 60.8 °F 54% 29.89 in 10.0 mi South 11.5 mph 17.3 mph N/A   Clear
12:15 PM 80.6 °F 81.5 °F 60.8 °F 51% 29.88 in 10.0 mi South 10.4 mph - N/A   Clear
12:35 PM 80.6 °F 81.1 °F 59.0 °F 48% 29.88 in 10.0 mi South 8.1 mph - N/A   Clear
12:55 PM 82.4 °F 82.0 °F 57.2 °F 42% 29.87 in 10.0 mi South 9.2 mph - N/A   Clear
1:15 PM 82.4 °F 82.5 °F 59.0 °F 45% 29.87 in 10.0 mi SSE 9.2 mph - N/A   Clear
1:35 PM 82.4 °F 82.5 °F 59.0 °F 45% 29.86 in 10.0 mi SE 12.7 mph 16.1 mph N/A   Clear
1:55 PM 82.4 °F 82.0 °F 57.2 °F 42% 29.86 in 10.0 mi SSE 12.7 mph - N/A   Clear
2:15 PM 82.4 °F 82.0 °F 57.2 °F 42% 29.86 in 10.0 mi South 11.5 mph 17.3 mph N/A   Clear
2:35 PM 84.2 °F 83.8 °F 59.0 °F 42% 29.85 in 10.0 mi SSE 15.0 mph 18.4 mph N/A   Clear
2:55 PM 84.2 °F 83.5 °F 57.2 °F 40% 29.85 in 10.0 mi SE 11.5 mph - N/A   Clear
3:15 PM 84.2 °F 83.5 °F 57.2 °F 40% 29.85 in 10.0 mi SSE 10.4 mph - N/A   Clear
3:35 PM 84.2 °F 83.5 °F 57.2 °F 40% 29.84 in 10.0 mi South 11.5 mph 18.4 mph N/A   Clear
3:55 PM 84.2 °F 83.5 °F 57.2 °F 40% 29.84 in 10.0 mi South 12.7 mph 20.7 mph N/A   Clear
4:15 PM 84.2 °F 83.5 °F 57.2 °F 40% 29.83 in 10.0 mi SSE 13.8 mph 20.7 mph N/A   Clear
4:35 PM 86.0 °F 84.9 °F 57.2 °F 37% 29.82 in 10.0 mi South 18.4 mph 23.0 mph N/A   Clear
4:55 PM 84.2 °F 83.5 °F 57.2 °F 40% 29.82 in 10.0 mi SSE 16.1 mph 20.7 mph N/A   Clear
5:15 PM 84.2 °F 83.5 °F 57.2 °F 40% 29.82 in 10.0 mi SSE 15.0 mph 24.2 mph N/A   Clear
5:35 PM 84.2 °F 83.5 °F 57.2 °F 40% 29.81 in 10.0 mi SE 19.6 mph 23.0 mph N/A   Clear
5:55 PM 84.2 °F 83.5 °F 57.2 °F 40% 29.81 in 10.0 mi South 19.6 mph - N/A   Clear
6:15 PM 84.2 °F 83.0 °F 55.4 °F 37% 29.81 in 10.0 mi SSE 20.7 mph 26.5 mph N/A   Clear
6:35 PM 82.4 °F 81.7 °F 55.4 °F 39% 29.81 in 10.0 mi SSE 21.9 mph - N/A   Clear
6:55 PM 82.4 °F 81.7 °F 55.4 °F 39% 29.80 in 10.0 mi SSE 19.6 mph 25.3 mph N/A   Clear
7:15 PM 80.6 °F 80.5 °F 55.4 °F 42% 29.80 in 10.0 mi South 19.6 mph 24.2 mph N/A   Clear
7:35 PM 80.6 °F 80.3 °F 53.6 °F 39% 29.80 in 10.0 mi SSE 19.6 mph 24.2 mph N/A   Clear
7:55 PM 78.8 °F - 55.4 °F 44% 29.81 in 10.0 mi SSE 17.3 mph 24.2 mph N/A   Clear
8:15 PM 78.8 °F - 57.2 °F 47% 29.82 in 10.0 mi SSE 13.8 mph - N/A   Clear
8:35 PM 75.2 °F - 57.2 °F 53% 29.83 in 10.0 mi SSE 12.7 mph - N/A   Clear
8:55 PM 75.2 °F - 57.2 °F 53% 29.83 in 10.0 mi SSE 12.7 mph - N/A   Clear
9:15 PM 73.4 °F - 59.0 °F 61% 29.84 in 10.0 mi SSE 13.8 mph - N/A   Clear
9:35 PM 73.4 °F - 59.0 °F 61% 29.85 in 10.0 mi SE 12.7 mph - N/A   Clear
9:55 PM 71.6 °F - 60.8 °F 69% 29.86 in 10.0 mi SE 12.7 mph - N/A   Clear
10:15 PM 71.6 °F - 60.8 °F 69% 29.86 in 10.0 mi SE 12.7 mph - N/A   Clear
10:35 PM 69.8 °F - 60.8 °F 73% 29.86 in 10.0 mi SE 13.8 mph - N/A   Clear
10:55 PM 69.8 °F - 60.8 °F 73% 29.86 in 10.0 mi SE 12.7 mph - N/A   Clear
11:15 PM 69.8 °F - 60.8 °F 73% 29.87 in 10.0 mi SE 12.7 mph - N/A   Clear
11:35 PM 68.0 °F - 60.8 °F 78% 29.86 in 10.0 mi SE 13.8 mph - N/A   Clear
11:55 PM 68.0 °F - 60.8 °F 78% 29.86 in 10.0 mi SE 16.1 mph - N/A   Clear